QPF
0.00 0.00 0.00 0.00 0.00 0.00 0.00 0.01 0.01 0.01 0.00 0.00 0.00 0.00 0.00 0.00 0.01 0.01 0.00 0.01 0.00 0.00 0.00 0.00 0.00 0.00 0.01 0.01 0.01 0.01 0.02 0.04 0.06 0.07 0.07 0.07 0.07 0.08
0.00 0.00 0.00 0.00 0.00 0.00 0.00 0.00 0.01 0.01 0.01 0.00 0.00 0.00 0.00 0.00 0.01 0.00 0.00 0.01 0.00 0.00 0.00 0.00 0.00 0.00 0.00 0.01 0.01 0.01 0.02 0.03 0.05 0.07 0.07 0.07 0.07 0.07
0.00 0.00 0.00 0.00 0.00 0.00 0.00 0.00 0.00 0.01 0.01 0.00 0.00 0.00 0.00 0.00 0.00 0.00 0.00 0.00 0.01 0.01 0.01 0.01 0.01 0.00 0.00 0.01 0.01 0.01 0.01 0.03 0.06 0.08 0.09 0.08 0.07 0.06
0.00 0.00 0.00 0.00 0.00 0.00 0.00 0.00 0.00 0.00 0.00 0.00 0.00 0.00 0.00 0.00 0.00 0.01 0.01 0.01 0.01 0.02 0.02 0.01 0.01 0.00 0.00 0.00 0.01 0.01 0.01 0.02 0.04 0.06 0.06 0.06 0.06 0.05
0.00 0.00 0.00 0.00 0.00 0.00 0.00 0.00 0.00 0.00 0.00 0.00 0.00 0.00 0.00 0.00 0.01 0.01 0.01 0.01 0.01 0.01 0.01 0.01 0.01 0.00 0.00 0.00 0.00 0.00 0.01 0.01 0.02 0.04 0.04 0.03 0.03 0.03
0.00 0.00 0.00 0.00 0.00 0.00 0.00 0.00 0.00 0.00 0.00 0.00 0.00 0.00 0.00 0.00 0.00 0.00 0.00 0.00 0.00 0.00 0.01 0.00 0.00 0.00 0.00 0.00 0.00 0.00 0.00 0.01 0.02 0.02 0.02 0.02 0.02 0.02
0.00 0.00 0.00 0.00 0.00 0.00 0.00 0.00 0.00 0.00 0.00 0.00 0.00 0.00 0.00 0.00 0.00 0.00 0.00 0.00 0.00 0.00 0.00 0.00 0.00 0.00 0.00 0.00 0.00 0.00 0.00 0.00 0.01 0.01 0.01 0.01 0.01 0.01
0.00 0.00 0.00 0.00 0.00 0.00 0.00 0.00 0.00 0.00 0.00 0.00 0.00 0.00 0.00 0.00 0.00 0.00 0.00 0.00 0.00 0.00 0.00 0.00 0.00 0.00 0.00 0.00 0.00 0.00 0.00 0.00 0.00 0.01 0.01 0.00 0.00 0.00
0.00 0.00 0.00 0.00 0.00 0.00 0.00 0.00 0.00 0.00 0.00 0.00 0.00 0.00 0.00 0.00 0.00 0.00 0.00 0.00 0.00 0.00 0.00 0.00 0.00 0.00 0.00 0.00 0.00 0.00 0.00 0.00 0.00 0.00 0.00 0.00 0.00 0.00
0.00 0.00 0.00 0.00 0.00 0.00 0.00 0.00 0.00 0.00 0.00 0.00 0.00 0.00 0.00 0.00 0.00 0.00 0.00 0.00 0.00 0.00 0.00 0.00 0.00 0.00 0.00 0.00 0.00 0.00 0.00 0.00 0.00 0.00 0.00 0.00 0.00 0.00
0.00 0.00 0.00 0.00 0.00 0.00 0.00 0.00 0.00 0.00 0.00 0.00 0.00 0.00 0.00 0.00 0.00 0.00 0.00 0.00 0.00 0.00 0.00 0.00 0.00 0.00 0.00 0.00 0.00 0.00 0.00 0.00 0.00 0.00 0.00 0.00 0.00 0.00
0.00 0.00 0.00 0.00 0.00 0.00 0.00 0.00 0.00 0.00 0.00 0.00 0.00 0.00 0.00 0.00 0.00 0.00 0.00 0.00 0.00 0.00 0.00 0.00 0.00 0.00 0.00 0.00 0.00 0.00 0.00 0.00 0.00 0.00 0.00 0.00 0.00 0.00
0.00 0.00 0.00 0.00 0.00 0.00 0.00 0.00 0.00 0.00 0.00 0.00 0.00 0.00 0.00 0.00 0.00 0.00 0.00 0.00 0.00 0.00 0.00 0.00 0.00 0.00 0.00 0.00 0.00 0.00 0.00 0.00 0.00 0.00 0.00 0.00 0.00 0.00
0.00 0.00 0.00 0.00 0.00 0.00 0.00 0.00 0.00 0.00 0.00 0.00 0.00 0.00 0.00 0.00 0.00 0.00 0.00 0.00 0.00 0.00 0.00 0.00 0.00 0.00 0.00 0.00 0.00 0.00 0.00 0.00 0.00 0.00 0.00 0.00 0.00 0.00
0.00 0.00 0.00 0.00 0.00 0.00 0.00 0.00 0.00 0.00 0.00 0.00 0.00 0.00 0.00 0.00 0.00 0.00 0.00 0.00 0.00 0.00 0.00 0.00 0.00 0.00 0.00 0.00 0.00 0.00 0.00 0.00 0.00 0.00 0.00 0.00 0.00 0.00
0.00 0.00 0.00 0.00 0.00 0.00 0.00 0.00 0.00 0.00 0.00 0.00 0.00 0.00 0.00 0.00 0.00 0.00 0.00 0.00 0.00 0.00 0.00 0.00 0.00 0.00 0.00 0.00 0.00 0.00 0.00 0.00 0.00 0.00 0.00 0.00 0.00 0.00
0.00 0.00 0.00 0.00 0.00 0.00 0.00 0.00 0.00 0.00 0.00 0.00 0.00 0.00 0.00 0.00 0.00 0.00 0.00 0.00 0.00 0.00 0.00 0.00 0.00 0.00 0.00 0.00 0.00 0.00 0.00 0.00 0.00 0.00 0.00 0.00 0.00 0.00
0.01 0.00 0.00 0.00 0.00 0.00 0.00 0.00 0.00 0.00 0.00 0.00 0.00 0.00 0.00 0.00 0.00 0.00 0.00 0.00 0.00 0.00 0.00 0.00 0.00 0.00 0.00 0.00 0.00 0.00 0.00 0.00 0.00 0.00 0.00 0.00 0.00 0.00
0.01 0.01 0.00 0.00 0.00 0.00 0.00 0.00 0.00 0.00 0.00 0.00 0.00 0.00 0.00 0.00 0.00 0.00 0.00 0.00 0.00 0.00 0.00 0.00 0.00 0.00 0.00 0.00 0.00 0.00 0.00 0.00 0.00 0.00 0.00 0.00 0.00 0.00
0.01 0.01 0.01 0.00 0.00 0.00 0.00 0.00 0.00 0.01 0.01 0.01 0.00 0.00 0.00 0.00 0.00 0.00 0.00 0.00 0.00 0.00 0.00 0.00 0.00 0.00 0.00 0.00 0.00 0.00 0.00 0.00 0.00 0.00 0.00 0.00 0.00 0.00
0.01 0.01 0.01 0.01 0.01 0.01 0.01 0.01 0.01 0.01 0.01 0.01 0.01 0.01 0.01 0.01 0.00 0.00 0.00 0.00 0.00 0.00 0.00 0.00 0.00 0.00 0.00 0.01 0.00 0.00 0.00 0.00 0.00 0.00 0.00 0.00 0.00 0.00
0.01 0.01 0.01 0.02 0.02 0.02 0.02 0.02 0.02 0.02 0.01 0.01 0.01 0.01 0.01 0.01 0.01 0.01 0.01 0.01 0.00 0.00 0.00 0.00 0.00 0.00 0.01 0.01 0.00 0.00 0.00 0.00 0.00 0.00 0.00 0.00 0.01 0.00
0.02 0.02 0.02 0.02 0.02 0.02 0.02 0.02 0.02 0.02 0.02 0.02 0.02 0.02 0.02 0.01 0.01 0.01 0.01 0.01 0.01 0.01 0.01 0.01 0.01 0.01 0.01 0.00 0.00 0.00 0.00 0.00 0.00 0.00 0.00 0.00 0.00 0.00
MSLP
1020.39 1020.53 1020.61 1020.61 1020.56 1020.46 1020.35 1020.25 1020.18 1020.16 1020.19 1020.27 1020.36 1020.45 1020.51 1020.51 1020.46 1020.36 1020.23 1020.09 1019.99 1019.94 1019.95 1020.01 1020.10 1020.18 1020.22 1020.18 1020.04 1019.80 1019.46 1019.06 1018.64 1018.25 1017.95 1017.77 1017.74 1017.88
1020.39 1020.51 1020.57 1020.56 1020.49 1020.38 1020.26 1020.15 1020.09 1020.07 1020.12 1020.21 1020.33 1020.44 1020.53 1020.58 1020.57 1020.52 1020.45 1020.38 1020.34 1020.35 1020.41 1020.51 1020.62 1020.72 1020.75 1020.69 1020.52 1020.22 1019.81 1019.33 1018.82 1018.34 1017.95 1017.68 1017.57 1017.64
1020.34 1020.47 1020.52 1020.51 1020.43 1020.32 1020.19 1020.08 1020.01 1020.00 1020.04 1020.15 1020.28 1020.42 1020.55 1020.63 1020.68 1020.70 1020.69 1020.69 1020.72 1020.78 1020.88 1021.02 1021.15 1021.25 1021.28 1021.20 1021.00 1020.67 1020.23 1019.71 1019.17 1018.64 1018.20 1017.88 1017.72 1017.74
1020.30 1020.43 1020.50 1020.49 1020.42 1020.31 1020.18 1020.07 1019.99 1019.97 1020.02 1020.12 1020.26 1020.42 1020.57 1020.70 1020.81 1020.88 1020.95 1021.01 1021.10 1021.21 1021.35 1021.51 1021.65 1021.75 1021.77 1021.69 1021.48 1021.15 1020.71 1020.20 1019.66 1019.15 1018.71 1018.38 1018.20 1018.18
1020.27 1020.43 1020.52 1020.53 1020.48 1020.37 1020.25 1020.14 1020.05 1020.03 1020.06 1020.15 1020.29 1020.45 1020.63 1020.79 1020.94 1021.08 1021.20 1021.33 1021.47 1021.63 1021.79 1021.96 1022.11 1022.20 1022.22 1022.14 1021.94 1021.63 1021.23 1020.77 1020.28 1019.82 1019.42 1019.12 1018.95 1018.92
1020.27 1020.46 1020.58 1020.62 1020.59 1020.50 1020.39 1020.28 1020.19 1020.15 1020.16 1020.24 1020.36 1020.53 1020.71 1020.91 1021.09 1021.28 1021.45 1021.63 1021.82 1022.00 1022.19 1022.37 1022.51 1022.60 1022.62 1022.55 1022.37 1022.11 1021.77 1021.38 1020.97 1020.58 1020.25 1020.00 1019.86 1019.82
1020.28 1020.50 1020.65 1020.72 1020.72 1020.66 1020.56 1020.46 1020.37 1020.31 1020.31 1020.37 1020.48 1020.64 1020.83 1021.03 1021.25 1021.47 1021.69 1021.91 1022.12 1022.33 1022.53 1022.71 1022.85 1022.93 1022.95 1022.89 1022.75 1022.53 1022.26 1021.95 1021.64 1021.34 1021.09 1020.90 1020.79 1020.77
1020.26 1020.50 1020.68 1020.79 1020.82 1020.79 1020.72 1020.63 1020.55 1020.49 1020.48 1020.52 1020.62 1020.77 1020.96 1021.18 1021.41 1021.65 1021.90 1022.14 1022.38 1022.60 1022.80 1022.98 1023.11 1023.19 1023.21 1023.16 1023.05 1022.88 1022.68 1022.45 1022.23 1022.02 1021.84 1021.72 1021.64 1021.62
1020.16 1020.42 1020.63 1020.77 1020.84 1020.85 1020.82 1020.76 1020.69 1020.65 1020.64 1020.68 1020.77 1020.91 1021.10 1021.32 1021.56 1021.82 1022.08 1022.34 1022.58 1022.80 1023.00 1023.17 1023.29 1023.36 1023.38 1023.34 1023.26 1023.14 1023.00 1022.84 1022.69 1022.56 1022.45 1022.37 1022.32 1022.31
1019.94 1020.22 1020.45 1020.63 1020.75 1020.81 1020.82 1020.80 1020.78 1020.76 1020.77 1020.82 1020.92 1021.06 1021.25 1021.47 1021.71 1021.97 1022.23 1022.49 1022.73 1022.95 1023.14 1023.29 1023.39 1023.46 1023.47 1023.45 1023.39 1023.31 1023.21 1023.11 1023.02 1022.94 1022.88 1022.84 1022.82 1022.81
1019.60 1019.89 1020.16 1020.37 1020.54 1020.66 1020.73 1020.77 1020.80 1020.83 1020.87 1020.95 1021.06 1021.21 1021.39 1021.61 1021.85 1022.10 1022.35 1022.60 1022.83 1023.04 1023.21 1023.35 1023.45 1023.50 1023.52 1023.51 1023.47 1023.42 1023.36 1023.30 1023.25 1023.21 1023.19 1023.17 1023.16 1023.16
1019.17 1019.48 1019.77 1020.03 1020.25 1020.43 1020.57 1020.68 1020.77 1020.86 1020.94 1021.05 1021.18 1021.34 1021.53 1021.74 1021.97 1022.21 1022.45 1022.68 1022.90 1023.09 1023.25 1023.38 1023.47 1023.53 1023.55 1023.55 1023.53 1023.50 1023.47 1023.44 1023.42 1023.41 1023.41 1023.40 1023.40 1023.40
1018.68 1019.01 1019.33 1019.64 1019.92 1020.17 1020.37 1020.55 1020.70 1020.84 1020.98 1021.12 1021.28 1021.45 1021.64 1021.85 1022.07 1022.30 1022.52 1022.74 1022.94 1023.12 1023.27 1023.40 1023.49 1023.55 1023.59 1023.60 1023.60 1023.59 1023.59 1023.58 1023.58 1023.58 1023.59 1023.59 1023.59 1023.58
1018.18 1018.53 1018.90 1019.25 1019.58 1019.88 1020.15 1020.39 1020.60 1020.79 1020.97 1021.15 1021.33 1021.51 1021.71 1021.92 1022.13 1022.35 1022.56 1022.77 1022.96 1023.13 1023.29 1023.41 1023.51 1023.59 1023.64 1023.68 1023.70 1023.71 1023.72 1023.73 1023.73 1023.74 1023.75 1023.75 1023.74 1023.73
1017.68 1018.07 1018.47 1018.86 1019.24 1019.59 1019.91 1020.19 1020.45 1020.68 1020.90 1021.10 1021.30 1021.50 1021.71 1021.92 1022.13 1022.34 1022.55 1022.76 1022.95 1023.13 1023.29 1023.43 1023.55 1023.64 1023.71 1023.77 1023.81 1023.83 1023.85 1023.86 1023.87 1023.87 1023.86 1023.85 1023.82 1023.79
1017.20 1017.62 1018.05 1018.47 1018.88 1019.26 1019.61 1019.93 1020.22 1020.48 1020.72 1020.95 1021.17 1021.39 1021.60 1021.82 1022.04 1022.26 1022.48 1022.70 1022.90 1023.10 1023.27 1023.43 1023.57 1023.68 1023.78 1023.85 1023.90 1023.93 1023.95 1023.95 1023.94 1023.92 1023.88 1023.84 1023.78 1023.71
1016.69 1017.14 1017.59 1018.03 1018.45 1018.85 1019.21 1019.55 1019.86 1020.14 1020.40 1020.65 1020.89 1021.13 1021.36 1021.60 1021.84 1022.08 1022.32 1022.55 1022.78 1023.00 1023.20 1023.38 1023.54 1023.68 1023.79 1023.87 1023.92 1023.95 1023.95 1023.93 1023.88 1023.82 1023.74 1023.65 1023.55 1023.44
1016.11 1016.57 1017.03 1017.47 1017.90 1018.30 1018.67 1019.01 1019.33 1019.62 1019.90 1020.17 1020.43 1020.69 1020.96 1021.22 1021.49 1021.76 1022.03 1022.30 1022.56 1022.80 1023.03 1023.24 1023.42 1023.58 1023.70 1023.78 1023.83 1023.83 1023.81 1023.75 1023.66 1023.55 1023.41 1023.26 1023.11 1022.95
1015.39 1015.86 1016.31 1016.76 1017.17 1017.57 1017.93 1018.28 1018.60 1018.91 1019.21 1019.50 1019.79 1020.09 1020.38 1020.69 1020.99 1021.30 1021.61 1021.91 1022.20 1022.48 1022.74 1022.97 1023.18 1023.34 1023.47 1023.55 1023.58 1023.57 1023.51 1023.41 1023.27 1023.10 1022.90 1022.69 1022.48 1022.27
1014.53 1014.99 1015.44 1015.87 1016.27 1016.66 1017.02 1017.36 1017.70 1018.02 1018.34 1018.66 1018.98 1019.31 1019.65 1019.99 1020.34 1020.68 1021.03 1021.37 1021.70 1022.01 1022.30 1022.56 1022.78 1022.96 1023.09 1023.17 1023.20 1023.16 1023.08 1022.93 1022.75 1022.53 1022.28 1022.01 1021.74 1021.49
1013.55 1014.00 1014.42 1014.84 1015.23 1015.60 1015.96 1016.31 1016.65 1016.99 1017.33 1017.68 1018.04 1018.40 1018.78 1019.16 1019.54 1019.93 1020.31 1020.68 1021.04 1021.38 1021.70 1021.98 1022.23 1022.43 1022.57 1022.66 1022.69 1022.65 1022.54 1022.38 1022.17 1021.91 1021.62 1021.32 1021.01 1020.71
1012.52 1012.94 1013.35 1013.74 1014.11 1014.48 1014.83 1015.18 1015.53 1015.89 1016.25 1016.62 1017.01 1017.41 1017.81 1018.22 1018.64 1019.06 1019.47 1019.87 1020.26 1020.63 1020.97 1021.28 1021.55 1021.78 1021.95 1022.06 1022.10 1022.07 1021.98 1021.82 1021.60 1021.34 1021.03 1020.71 1020.38 1020.07
1011.52 1011.91 1012.29 1012.66 1013.02 1013.37 1013.72 1014.07 1014.42 1014.79 1015.17 1015.56 1015.97 1016.39 1016.81 1017.25 1017.69 1018.12 1018.56 1018.98 1019.39 1019.78 1020.15 1020.49 1020.80 1021.06 1021.26 1021.41 1021.49 1021.50 1021.43 1021.30 1021.11 1020.86 1020.57 1020.25 1019.92 1019.60
Thickness
5575 5573 5570 5568 5566 5563 5562 5560 5560 5561 5560 5553 5546 5543 5540 5538 5536 5535 5533 5531 5529 5528 5527 5526 5525 5525 5526 5527 5529 5531 5532 5534 5535 5535 5534 5533 5532 5530
5564 5561 5559 5557 5554 5551 5549 5548 5546 5547 5548 5542 5535 5531 5528 5525 5523 5522 5520 5518 5517 5515 5514 5514 5514 5514 5514 5516 5518 5520 5523 5525 5526 5526 5526 5525 5524 5523
5552 5550 5547 5545 5542 5539 5537 5535 5533 5532 5533 5528 5522 5519 5516 5513 5510 5508 5506 5505 5504 5503 5502 5502 5501 5502 5503 5505 5507 5509 5512 5514 5515 5516 5516 5516 5516 5514
5539 5537 5535 5532 5530 5527 5525 5523 5521 5519 5519 5517 5510 5507 5504 5501 5498 5496 5494 5492 5491 5491 5490 5490 5490 5490 5492 5494 5495 5498 5500 5502 5504 5505 5506 5506 5505 5504
5527 5525 5523 5520 5517 5515 5513 5510 5508 5507 5505 5504 5499 5495 5492 5489 5486 5484 5482 5480 5480 5479 5478 5478 5479 5479 5481 5482 5484 5486 5488 5490 5492 5493 5494 5494 5494 5494
5515 5513 5511 5508 5506 5503 5501 5498 5496 5495 5493 5491 5488 5484 5480 5478 5476 5473 5470 5469 5468 5467 5467 5467 5468 5468 5470 5471 5473 5475 5476 5478 5479 5480 5481 5481 5482 5482
5503 5501 5499 5497 5495 5492 5490 5487 5485 5483 5481 5479 5476 5473 5469 5467 5465 5463 5460 5457 5456 5456 5457 5457 5457 5458 5459 5460 5462 5463 5465 5466 5467 5468 5469 5469 5469 5469
5492 5489 5487 5485 5484 5482 5479 5477 5475 5472 5469 5467 5465 5463 5460 5458 5455 5453 5450 5449 5448 5446 5446 5446 5447 5447 5448 5450 5451 5453 5454 5455 5456 5457 5457 5458 5458 5458
5481 5478 5476 5474 5471 5469 5466 5464 5462 5461 5460 5457 5455 5453 5451 5449 5446 5444 5442 5440 5439 5437 5437 5437 5437 5438 5439 5440 5442 5443 5444 5445 5445 5446 5446 5447 5447 5447
5470 5468 5465 5462 5460 5457 5454 5451 5449 5448 5448 5447 5446 5444 5442 5440 5438 5437 5434 5430 5428 5428 5429 5428 5428 5429 5429 5431 5432 5433 5434 5435 5435 5435 5436 5436 5436 5436
5459 5457 5455 5452 5451 5448 5444 5441 5438 5437 5438 5437 5436 5435 5433 5431 5429 5427 5424 5422 5421 5420 5419 5420 5419 5419 5420 5421 5422 5423 5424 5424 5425 5425 5425 5425 5425 5425
5449 5447 5446 5443 5442 5440 5435 5432 5429 5428 5427 5426 5425 5424 5422 5422 5421 5419 5417 5414 5412 5412 5412 5411 5410 5410 5411 5412 5412 5413 5414 5414 5414 5414 5414 5414 5415 5414
5440 5438 5437 5436 5435 5432 5428 5425 5423 5421 5418 5416 5415 5413 5412 5411 5411 5410 5409 5407 5405 5404 5404 5403 5401 5400 5399 5400 5403 5403 5403 5404 5404 5404 5403 5404 5404 5404
5433 5431 5429 5428 5427 5425 5422 5419 5418 5415 5411 5408 5407 5405 5404 5403 5402 5402 5401 5400 5399 5398 5397 5396 5393 5391 5390 5390 5392 5393 5393 5393 5393 5393 5393 5393 5393 5393
5427 5425 5423 5422 5420 5418 5416 5414 5412 5408 5404 5402 5400 5399 5398 5396 5395 5394 5392 5392 5391 5390 5389 5388 5386 5383 5381 5381 5381 5381 5382 5383 5383 5383 5382 5382 5382 5382
5422 5420 5418 5416 5413 5411 5409 5407 5405 5401 5399 5397 5395 5394 5391 5389 5388 5386 5385 5383 5382 5381 5380 5379 5378 5376 5373 5372 5371 5371 5371 5371 5373 5372 5372 5372 5372 5372
5415 5411 5408 5406 5404 5403 5401 5399 5397 5395 5394 5391 5389 5387 5385 5383 5381 5379 5377 5375 5373 5372 5371 5370 5368 5367 5365 5364 5363 5364 5364 5363 5363 5362 5361 5361 5362 5362
5409 5405 5403 5401 5399 5398 5396 5394 5392 5390 5389 5386 5384 5381 5380 5377 5375 5372 5370 5368 5366 5365 5363 5361 5358 5357 5356 5358 5358 5357 5355 5355 5354 5353 5351 5350 5351 5353
5406 5402 5399 5397 5395 5394 5392 5390 5388 5387 5384 5382 5379 5376 5374 5371 5368 5366 5364 5361 5358 5357 5355 5352 5349 5346 5345 5346 5351 5349 5347 5345 5343 5343 5342 5341 5341 5343
5402 5400 5397 5394 5392 5390 5388 5386 5384 5382 5379 5377 5374 5372 5369 5366 5363 5360 5357 5355 5352 5349 5347 5344 5341 5339 5338 5337 5337 5338 5338 5336 5334 5332 5332 5332 5333 5335
5398 5396 5394 5392 5390 5387 5385 5383 5381 5378 5376 5373 5371 5367 5364 5360 5358 5355 5352 5350 5347 5343 5341 5339 5337 5335 5331 5327 5326 5329 5329 5329 5327 5324 5322 5321 5323 5325
5393 5392 5391 5389 5387 5384 5382 5379 5377 5374 5372 5369 5367 5364 5360 5356 5353 5350 5347 5343 5342 5339 5336 5333 5329 5326 5321 5320 5320 5320 5319 5319 5318 5317 5316 5315 5313 5312
5389 5387 5386 5384 5383 5381 5378 5376 5373 5371 5369 5366 5363 5359 5355 5352 5348 5345 5342 5338 5335 5332 5329 5324 5320 5317 5315 5313 5312 5311 5310 5309 5309 5308 5309 5309 5309 5309